Weather in Los Roques archipelago

Venezuela     11°50′05″N   66°33′58″W
temp.,
°C
wind,
m/s
gust,
m/s
humid.,
%
clouds,
%
prec.,
mm/h
press.,
hPa
HPBL,
m
6 may, thu
thu623:00+26ene911845 0.1 1015922
02:00+26e81081100 0.1 1013878
05:00+26e8108267 0.1 1013870
08:00+26e8108140 0.6 1014887
11:00+26e78806 0.7 1015827
14:00+26ene7878100 0.8 1013748
17:00+26ene8981100 0.0 1012849
20:00+26ene8108336 0.1 1013837
7 may, fri
fri723:00+26ene9108258 0.1 1015877
02:00+26ene91181100 0.8 1012878
05:00+26e91080100 1.1 1012888
08:00+26e9108089 1.6 1014895
11:00+26e91080100 0.3 1014887
14:00+26e8980100 0.3 1012879
17:00+26e798386 0.0 1012852
20:00+26ene81184100 0.1 1013784
8 may, sat
sat823:00+26e91185100 0.1 1014843
02:00+26e9118386 0.3 1013841
05:00+26e9118394 0.7 1013836
08:00+26e91083100 0.9 1014785
11:00+27e81084100 0.0 1015815
14:00+27e81083100 0.1 1012842
17:00+27e91185100 0.0 1012832
20:00+26e101285100 0.6 1014793
9 may, sun
sun923:00+26e101387100 0.6 1015865
02:00+26e91287100 1.0 1013801
05:00+26e101383100 0.6 1013754
08:00+26e121486100 3.6 1015913
11:00+26ese121585100 1.4 1015893
14:00+26ese91185100 1.6 1013726
17:00+26e91284100 0.9 1013867
20:00+27ene91286100 1.6 1014874
10 may, mon
mon1023:00+27e101287100 1.3 1015719
02:00+26e10138584 2.9 1013787
05:00+27e10138494 0.6 1013946
08:00+26e9128596 0.6 1015954
11:00+27e811845 0.1 1015927
14:00+27e811835 0.3 1013948
17:00+26ene912865 0.0 1012869
20:00+27e1013866 0.1 1014850